Regional Weather Roundup
Issued by NWS Newport/Morehead, NC

Current Version | Previous Version | Graphics & Text | Print | Product List | Glossary On
Versions: 1 2 3 4 5 6 7 8 9 10 11 12 13 14 15 16 17 18 19 20 21 22 23 24 25 26 27 28 29 30 31 32 33 34 35 36 37 38 39 40 41 42 43 44 45 46 47 48 49 50
000 ASUS42 KMHX 272024 RWRMHX WEATHER ROUNDUP FOR EASTERN NORTH CAROLINA NATIONAL WEATHER SERVICE NEWPORT/MOREHEAD CITY NC 300 PM EST FRI FEB 27 2015 NOTE: "FAIR" INDICATES FEW OR NO CLOUDS BELOW 12,000 FEET WITH NO SIGNIFICANT WEATHER AND/OR OBSTRUCTIONS TO VISIBILITY NCZ015>017-031-032-045>047-102-103-272100- NORTH COAST CITY SKY/WX TMP DP RH WIND PRES REMARKS EDENTON MOSUNNY 47 30 53 N8 30.39R ELIZABETH CITY MOSUNNY 44 31 60 N7 30.40R KITTY HAWK CLEAR 38 30 71 N7 30.39R MANTEO SUNNY 39 27 60 N10G16 30.41R $$ NCZ045>047-081-094-103-104-272100- CENTRAL COAST CITY SKY/WX TMP DP RH WIND PRES REMARKS FRISCO PTSUNNY 40 28 62 N10G20 30.38R SWANQUARTER N/A 48 N/A N/A N5G15 30.33S $$ NCZ095-097-098-100-101-272100- SOUTHERN COAST CITY SKY/WX TMP DP RH WIND PRES REMARKS BEAUFORT CLOUDY 47 32 56 N12 30.37R CEDAR ISLAND N/A 43 N/A N/A N5 30.41S JACKSONVILLE NOT AVBL PINEY ISLAND N/A N/A N/A N/A MISG 30.37R WILMINGTON PTSUNNY 50 32 50 NW10 30.37R $$ NCZ011>013-027>030-043-044-078>080-089-090>093-098-272100- COASTAL PLAIN CITY SKY/WX TMP DP RH WIND PRES REMARKS AHOSKIE SUNNY 44 23 44 NW3 30.40R CLINTON SUNNY 50 31 47 N6 30.38S ELIZABETHTOWN MOSUNNY 51 30 43 NE3 30.36S GOLDSBORO SUNNY 47 33 58 N8 30.36R GREENVILLE MOSUNNY 48 28 46 N3G9 30.39S HAVELOCK PTSUNNY 49 29 46 N13 30.38R KENANSVILLE SUNNY 49 28 44 N6 30.39R KINSTON MOSUNNY 48 28 46 N10 30.38S NEW BERN MOSUNNY 49 29 46 NW8 30.38R RICHLANDS MOSUNNY 48 30 49 N8 30.38S ROCKY MOUNT SUNNY 47 27 45 N8 30.38S WASHINGTON MOSUNNY 47 31 54 N9 30.39R WHITEVILLE MOSUNNY 52 30 43 NE5 30.35F $$ AMZ130-135-150-152-154-156-158-170-250-252-270-ANZ085-086-088-633-658-670-272100- MARINE OBSERVATIONS STATION/POSITION TIME TEMP WIND PRES WAVE SWELL AIR SEA DIR/SP/G HT/PER HT/PER (UTC) (F) (DEG/KT/KT) (MB) (FT/S) (FT/S) CHESAPEAKE LIGHT 2000 33 360/ 13/ 14 1031.1 64 E VA BEACH 1950 41 61 350/ 17/ 21 1028.4 6/11 5/11 DUCK 1900 34 35 10/ 11/ 12 1028.2 2 E DUCK 1911 35 N/A 5/11 3/11 10 NE DUCK 1922 37 N/A 6/10 3/11 OREGON INLET 1900 38 37 350/ 13/ 18 1028.5 HATTERAS CG 1900 39 40 10/ 15/ 17 1028.3 CAPE LOOKOUT 2000 45 20/ 12/ 14 1028.3 BEAUFORT LAB 2000 45 40 360/ 8/ 11 1027.6 27 SE WRIGHTSVLE NOT AVBL 5 SE WRIGHTSVLE NOT AVBL 225 S CAPE HAT 1950 63 70 360/ 16/ 21 1023.4 10/11 8/11 41 SE CHARLESTON 1950 49 66 30/ 19/ 23 1026.9 5/ 9 3/ 9 $$

USA.gov is the U.S. government's official web portal to all federal, state and local government web resources and services.